This is the latest recevied weather packets stored in our database for station/object KF4UQS-14. If no packets are shown the sender has not sent any weather packets the latest 10 day(s).
| Time | Temp. | Humidity | Pressure | Rain* | Wind** | Luminosity | Snow |
|---|---|---|---|---|---|---|---|
| 1778173953 | 11.67° C | 99% | 1012 hPa | 3.05 mm | - | 88 W/m² | - |
| 1778173650 | 11.11° C | 99% | 1012 hPa | 3.05 mm | - | 71 W/m² | - |
| 1778173346 | 11.11° C | 99% | 1011.5 hPa | 3.05 mm | - | 128 W/m² | - |
| 1778173042 | 11.11° C | 99% | 1011.6 hPa | 4.83 mm | - | 109 W/m² | - |
| 1778172738 | 11.11° C | 99% | 1011.7 hPa | 4.83 mm | - | 107 W/m² | - |
| 1778172434 | 11.11° C | 99% | 1011.6 hPa | 4.32 mm | - | 116 W/m² | - |
| 1778172132 | 11.11° C | 99% | 1011.9 hPa | 3.05 mm | - | 79 W/m² | - |
| 1778171829 | 11.11° C | 99% | 1011.7 hPa | 3.05 mm | - | 131 W/m² | - |
| 1778171526 | 11.11° C | 99% | 1011.3 hPa | 3.05 mm | - | 148 W/m² | - |
| 1778171222 | 10.56° C | 99% | 1011.1 hPa | 3.05 mm | - | 130 W/m² | - |
| 1778170918 | 10.56° C | 99% | 1011.9 hPa | 3.05 mm | - | 108 W/m² | - |
| 1778170614 | 10.56° C | 99% | 1012.1 hPa | 4.83 mm | - | 54 W/m² | - |
| 1778170305 | 10.56° C | 99% | 1011.3 hPa | 4.32 mm | - | 67 W/m² | - |
| 1778170002 | 10.56° C | 99% | 1010.9 hPa | 3.05 mm | - | 66 W/m² | - |
| 1778169699 | 11.11° C | 99% | 1011.1 hPa | 3.56 mm | - | 58 W/m² | - |
| 1778169394 | 11.11° C | 99% | 1011.6 hPa | 3.05 mm | - | 73 W/m² | - |
| 1778169091 | 11.11° C | 99% | 1011.8 hPa | 3.05 mm | - | 89 W/m² | - |
| 1778168788 | 11.11° C | 99% | 1012 hPa | 3.05 mm | - | 81 W/m² | - |
| 1778168486 | 11.11° C | 99% | 1011.7 hPa | 3.05 mm | - | 58 W/m² | - |
| 1778168181 | 11.67° C | 99% | 1011.7 hPa | 3.05 mm | - | 63 W/m² | - |
| 1778167878 | 11.67° C | 99% | 1011.5 hPa | 4.32 mm | - | 79 W/m² | - |
| 1778167574 | 12.22° C | 99% | 1011.7 hPa | 4.83 mm | - | 86 W/m² | - |
| 1778167270 | 12.22° C | 99% | 1011.7 hPa | 3.05 mm | - | 53 W/m² | - |
| 1778166967 | 12.22° C | 99% | 1011.9 hPa | 3.05 mm | - | 46 W/m² | - |
| 1778166663 | 12.78° C | 99% | 1011.6 hPa | 3.05 mm | - | 78 W/m² | - |
* Rain latest hour (hover to see other rain measurements)
** Current wind speed in m/s (hover to see current wind gust speed)